Regional Weather Roundup
Issued by NWS

Home | Current Version | Previous Version | Graphics & Text | Print | Product List | Glossary On
Versions: 1 2 3 4 5 6 7 8 9 10 11 12 13 14 15 16 17 18 19 20 21 22 23 24 25 26 27 28 29 30 31 32 33 34 35 36 37 38 39 40 41 42 43 44 45 46 47 48 49 50
655
ASUS44 KLIX 211601
RWRLA
LOUISIANA WEATHER ROUNDUP
NATIONAL WEATHER SERVICE NEW ORLEANS LA
1100 AM CDT TUE OCT 21 2014

NOTE: "FAIR" INDICATES FEW OR NO CLOUDS BELOW 12,000 FEET WITH NO
      SIGNIFICANT WEATHER AND/OR OBSTRUCTIONS TO VISIBILITY.
      SKY/WX - SKY CONDITION AND SIGNIFICANT WEATHER.
      TMP - AIR TEMPERATURE.    DP   - DEWPOINT TEMPERATURE.
      RH  - RELATIVE HUMIDITY.  PRES - PRESSURE.
      HX  - HEAT INDEX.         WCI  - WIND CHILL INDEX.

*  THESE STATIONS ARE NOT NWS OR FAA STATIONS AND ARE NOT UNDER
   NWS QUALITY CONTROL.

LAZ040-048-061>063-065-066-069-211700-
SOUTHEAST LOUISIANA

CITY           SKY/WX    TMP DP  RH WIND       PRES   REMARKS
N.O. AUDUBON   NOT AVBL
N.O. INTL ARPT MOSUNNY   74  54  49 NE13      30.06S
N.O. LAKEFRONT SUNNY     73  54  51 NE10      30.07S
N.O. DOWNTOWN* FAIR      73  50  43 N8        30.07S
SLIDELL        SUNNY     72  54  53 NE9       30.06F
BATON ROUGE    SUNNY     73  55  53 NE6       30.08S
BOOTHVILLE     SUNNY     76  60  57 NE9       30.05R
BELLE CHASSE   SUNNY     76  53  44 NE10      30.06S
BOGALUSA*        N/A     75  53  45 NE7       30.09F
NEW ROADS*     NOT AVBL
GONZALES*      NOT AVBL
HAMMOND*       NOT AVBL
HOUMA*         SUNNY     73  57  56 N9        30.06S
PORT FOURCHON* SUNNY     75  63  64 NE15      30.07F

$$

LAZ041-044-053-054-211700-
SOUTHWEST LOUISIANA

CITY           SKY/WX    TMP DP  RH WIND       PRES   REMARKS
LAKE CHARLES   SUNNY     74  55  51 NE13      30.07F
LAFAYETTE      SUNNY     74  55  51 NE8       30.08S
PATTERSON      SUNNY     73  57  56 NE13      30.09S
SALT POINT       N/A     75  58  55 VRB5      30.05S
NEW IBERIA     SUNNY     75  56  51 NE8       30.08S
CHENAULT AIRPK NOT AVBL

$$

LAZ027-028-211700-
CENTRAL LOUISIANA

CITY           SKY/WX    TMP DP  RH WIND       PRES   REMARKS
FORT POLK      SUNNY     72  55  54 E6        30.10F
ALEXANDRIA INT SUNNY     72  52  49 E6        30.10S
ALEXANDRIA     SUNNY    N/A N/A N/A MISG      30.11F

$$

LAZ001-002-211700-
NORTHWEST LOUISIANA

CITY           SKY/WX    TMP DP  RH WIND       PRES   REMARKS
SHREVEPORT     SUNNY     75  57  53 N3        30.12R
BARKSDALE AFB  SUNNY     74  56  54 SW2       30.12S
DTN SHREVEPORT SUNNY     71  57  61 NW3       30.12S

$$

LAZ014-016-211700-
NORTHEAST LOUISIANA

CITY           SKY/WX    TMP DP  RH WIND       PRES   REMARKS
MONROE         CLOUDY    68  58  70 CALM      30.13S
TALLULAH       SUNNY     72  56  57 NE3       30.12S

$$




USA.gov is the U.S. government's official web portal to all federal, state and local government web resources and services.